| time (UTC) | temp F | wind direction | speed MPH | gust MPH | rain 1hr in | rain 24hr in | rain mn in | humidity % | barometer mb |
| 20260502220023 | 78 | 199 | 4.0 | 12.0 | 0.00 | 0.00 | 0.00 | 10 | 1011.9 |
| 20260502214520 | 76 | 137 | 3.0 | 9.0 | 0.00 | 0.00 | 0.00 | 10 | 1012.2 |
| 20260502213018 | 77 | 46 | 2.0 | 8.0 | 0.00 | 0.00 | 0.00 | 10 | 1012.4 |
| 20260502211516 | 78 | 188 | 4.0 | 10.0 | 0.00 | 0.00 | 0.00 | 11 | 1012.9 |
| 20260502210013 | 76 | 115 | 1.0 | 10.0 | 0.00 | 0.00 | 0.00 | 12 | 1013.1 |
| 20260502204516 | 74 | 170 | 6.0 | 12.0 | 0.00 | 0.00 | 0.00 | 13 | 1013.3 |
| 20260502203011 | 77 | 216 | 2.0 | 13.0 | 0.00 | 0.00 | 0.00 | 11 | 1013.4 |
| 20260502201509 | 76 | 117 | 6.0 | 9.0 | 0.00 | 0.00 | 0.00 | 11 | 1013.7 |
| 20260502200008 | 76 | 215 | 3.0 | 8.0 | 0.00 | 0.00 | 0.00 | 12 | 1013.9 |
| 20260502194506 | 76 | 198 | 6.0 | 9.0 | 0.00 | 0.00 | 0.00 | 13 | 1014.0 |
| 20260502193005 | 76 | 205 | 1.0 | 10.0 | 0.00 | 0.00 | 0.00 | 12 | 1014.2 |
| 20260502191504 | 75 | 176 | 2.0 | 11.0 | 0.00 | 0.00 | 0.00 | 14 | 1014.4 |
| 20260502190002 | 74 | 344 | 1.0 | 10.0 | 0.00 | 0.00 | 0.00 | 13 | 1014.9 |
| 20260502184610 | 74 | 109 | 3.0 | 9.0 | 0.00 | 0.00 | 0.00 | 14 | 1015.1 |
| 20260502183058 | 73 | 253 | 5.0 | 8.0 | 0.00 | 0.00 | 0.00 | 16 | 1015.2 |
| 20260502181558 | 73 | 222 | 3.0 | 9.0 | 0.00 | 0.00 | 0.00 | 16 | 1015.4 |
| 20260502163042 | 64 | 26 | 2.0 | 5.0 | 0.00 | 0.00 | 0.00 | 21 | 1016.7 |
| 20260502161554 | 62 | 27 | 3.0 | 6.0 | 0.00 | 0.00 | 0.00 | 22 | 1016.7 |
| 20260502151522 | 58 | 176 | 3.0 | 6.0 | 0.00 | 0.00 | 0.00 | 22 | 1017.0 |
| 20260502130121 | 45 | 176 | 4.0 | 8.0 | 0.00 | 0.00 | 0.00 | 30 | 1015.8 |
| 20260502123122 | 43 | 114 | 3.0 | 6.0 | 0.00 | 0.00 | 0.00 | 34 | 1015.2 |
| 20260502121554 | 42 | 102 | 4.0 | 6.0 | 0.00 | 0.00 | 0.00 | 36 | 1015.1 |
| 20260502120109 | 42 | 74 | 3.0 | 5.0 | 0.00 | 0.00 | 0.00 | 37 | 1014.9 |
| 20260502114554 | 41 | 348 | 1.0 | 3.0 | 0.00 | 0.00 | 0.00 | 45 | 1014.9 |
| 20260502113050 | 41 | 348 | 0.0 | 0.0 | 0.00 | 0.00 | 0.00 | 42 | 1014.9 |
| 20260502111547 | 41 | 348 | 0.0 | 1.0 | 0.00 | 0.00 | 0.00 | 43 | 1014.8 |
| 20260502110049 | 41 | 348 | 0.0 | 0.0 | 0.00 | 0.00 | 0.00 | 38 | 1014.7 |
| 20260502104542 | 42 | 348 | 0.0 | 0.0 | 0.00 | 0.00 | 0.00 | 42 | 1014.8 |
| 20260502103039 | 42 | 348 | 0.0 | 0.0 | 0.00 | 0.00 | 0.00 | 35 | 1014.7 |
| 20260502101548 | 43 | 348 | 0.0 | 0.0 | 0.00 | 0.00 | 0.00 | 32 | 1014.6 |
| 20260502091530 | 44 | 347 | 1.0 | 3.0 | 0.00 | 0.00 | 0.00 | 42 | 1013.8 |
| 20260502071510 | 49 | 347 | 0.0 | 0.0 | 0.00 | 0.00 | 0.00 | 37 | 1013.5 |
| 20260502070005 | 50 | 347 | 0.0 | 0.0 | 0.00 | 0.00 | 0.00 | 38 | 1013.5 |
| 20260502064504 | 51 | 347 | 0.0 | 1.0 | 0.00 | 0.00 | 0.00 | 28 | 1013.4 |
| 20260502063102 | 52 | 347 | 0.0 | 1.0 | 0.00 | 0.00 | 0.00 | 30 | 1013.3 |
| 20260502061600 | 51 | 347 | 0.0 | 2.0 | 0.00 | 0.00 | 0.00 | 31 | 1013.2 |
| 20260502060109 | 51 | 347 | 0.0 | 0.0 | 0.00 | 0.00 | 0.00 | 25 | 1013.1 |
| 20260502054555 | 52 | 347 | 0.0 | 0.0 | 0.00 | 0.00 | 0.00 | 26 | 1012.9 |
| 20260502053054 | 53 | 347 | 0.0 | 1.0 | 0.00 | 0.00 | 0.00 | 24 | 1012.8 |
| 20260502051600 | 53 | 347 | 0.0 | 0.0 | 0.00 | 0.00 | 0.00 | 23 | 1012.7 |
| 20260502050057 | 54 | 347 | 0.0 | 0.0 | 0.00 | 0.00 | 0.00 | 25 | 1012.7 |
| 20260502044553 | 55 | 347 | 0.0 | 0.0 | 0.00 | 0.00 | 0.00 | 21 | 1012.6 |
| 20260502043058 | 56 | 347 | 0.0 | 0.0 | 0.00 | 0.00 | 0.00 | 22 | 1012.5 |
| 20260502041555 | 57 | 347 | 0.0 | 0.0 | 0.00 | 0.00 | 0.00 | 22 | 1012.4 |
| 20260502034558 | 59 | 347 | 0.0 | 0.0 | 0.00 | 0.00 | 0.00 | 23 | 1012.0 |
| 20260502033050 | 60 | 347 | 0.0 | 0.0 | 0.00 | 0.00 | 0.00 | 20 | 1011.7 |
| 20260502031550 | 61 | 347 | 0.0 | 0.0 | 0.00 | 0.00 | 0.00 | 18 | 1011.5 |
| 20260502030050 | 62 | 347 | 0.0 | 4.0 | 0.00 | 0.00 | 0.00 | 19 | 1011.2 |
| 20260502024607 | 63 | 347 | 2.0 | 6.0 | 0.00 | 0.00 | 0.00 | 18 | 1010.9 |
| 20260502023049 | 64 | 344 | 5.0 | 9.0 | 0.00 | 0.00 | 0.00 | 17 | 1010.7 |
| 20260502021552 | 65 | 345 | 4.0 | 11.0 | 0.00 | 0.00 | 0.00 | 15 | 1010.5 |
| 20260502020050 | 66 | 360 | 7.0 | 11.0 | 0.00 | 0.00 | 0.00 | 15 | 1010.2 |
| 20260502014547 | 67 | 12 | 7.0 | 12.0 | 0.00 | 0.00 | 0.00 | 15 | 1010.2 |
| 20260502013046 | 68 | 5 | 9.0 | 14.0 | 0.00 | 0.00 | 0.00 | 13 | 1009.9 |
| 20260502011546 | 69 | 355 | 8.0 | 17.0 | 0.00 | 0.00 | 0.00 | 13 | 1009.8 |
| 20260502010052 | 69 | 14 | 11.0 | 18.0 | 0.00 | 0.00 | 0.00 | 13 | 1009.6 |
| 20260502004558 | 70 | 11 | 12.0 | 18.0 | 0.00 | 0.00 | 0.00 | 13 | 1009.4 |
| 20260502003044 | 70 | 346 | 13.0 | 20.0 | 0.00 | 0.00 | 0.00 | 13 | 1009.4 |
| 20260502001543 | 70 | 342 | 10.0 | 21.0 | 0.00 | 0.00 | 0.00 | 12 | 1009.6 |
| 20260502000043 | 70 | 344 | 14.0 | 19.0 | 0.00 | 0.00 | 0.00 | 12 | 1009.4 |
| 20260501234542 | 70 | 12 | 9.0 | 19.0 | 0.00 | 0.00 | 0.00 | 12 | 1009.4 |
| 20260501233044 | 70 | 346 | 8.0 | 14.0 | 0.00 | 0.00 | 0.00 | 13 | 1009.5 |
| 20260501231539 | 70 | 331 | 11.0 | 19.0 | 0.00 | 0.00 | 0.00 | 12 | 1009.5 |
| 20260501230038 | 70 | 331 | 10.0 | 18.0 | 0.00 | 0.00 | 0.00 | 12 | 1009.6 |
| 20260501224541 | 70 | 18 | 12.0 | 17.0 | 0.00 | 0.00 | 0.00 | 11 | 1009.6 |
| 20260501223035 | 70 | 340 | 9.0 | 23.0 | 0.00 | 0.00 | 0.00 | 13 | 1009.9 |
| 20260501221533 | 70 | 319 | 4.0 | 17.0 | 0.00 | 0.00 | 0.00 | 13 | 1010.0 |